Plovdiv, Bulgaria

10:33 AM EET on December 11, 2019 (GMT +0200)
Plovdiv

Weather History for LBPD - October, 2019

Change the Weather History Date:

Wednesday, October 2, 2019

  Actual Average Record
Temperature  
Mean Temperature 70 °F -  
Max Temperature 86 °F - - ()
Min Temperature 55 °F - - ()
Cooling Degree Days 6    
Growing Degree Days 20 (Base 50)    
Moisture  
Dew Point 55 °F    
Average Humidity 64    
Maximum Humidity 94    
Minimum Humidity 30    
Precipitation  
Precipitation 0.00 in - - ()
Sea Level Pressure  
Sea Level Pressure 29.84 in    
Wind  
Wind Speed 5 mph ()    
Max Wind Speed 12 mph    
Max Gust Speed -    
Visibility 6.2 miles    
Events      
T = Trace of Precipitation, MM = Missing Value Source: Averaged Metar Reports

Daily Weather History Graph

Daily Weather History Graph

Search for Another Location

Airport or City:

Astronomy

Oct. 02, 2019 Rise Set
Actual Time 7:18 AM EEST 7:01 PM EEST
Civil Twilight 6:50 AM EEST 7:29 PM EEST
Nautical Twilight 6:18 AM EEST 8:01 PM EEST
Astronomical Twilight 5:45 AM EEST 8:34 PM EEST
Moon 11:26 AM EEST (10/2) 9:38 PM EEST (10/2)
Length of Visible Light 12h 38m
Length of Day
11h 43m
Waxing Crescent, 18% of the Moon is Illuminated
Oct 2
Waxing Crescent
Oct 5
First Quarter
Oct 14
Full
Oct 21
Last Quarter
Oct 28
New

Hourly Weather History & Observations

Time (EEST) Temp. Heat Index Dew Point Humidity Pressure Visibility Wind Dir Wind Speed Gust Speed Precip Events Conditions
12:00 AM 68.0 °F - 57.2 °F 68% 29.92 in 6.2 mi ESE 11.5 mph - N/A   Unknown
12:30 AM 66.2 °F - 57.2 °F 73% 29.92 in 6.2 mi ESE 10.4 mph - N/A   Unknown
1:00 AM 64.4 °F - 57.2 °F 77% 29.92 in 6.2 mi East 9.2 mph - N/A   Unknown
1:30 AM 64.4 °F - 57.2 °F 77% 29.92 in 6.2 mi ESE 6.9 mph - N/A   Partly Cloudy
2:00 AM 64.4 °F - 57.2 °F 77% 29.92 in 6.2 mi SE 3.5 mph - N/A   Partly Cloudy
2:30 AM 62.6 °F - 57.2 °F 82% 29.92 in 6.2 mi Calm Calm - N/A   Unknown
3:00 AM 59.0 °F - 53.6 °F 82% 29.92 in 6.2 mi SE 3.5 mph - N/A   Partly Cloudy
3:30 AM 57.2 °F - 53.6 °F 88% 29.92 in 6.2 mi South 3.5 mph - N/A   Partly Cloudy
4:00 AM 57.2 °F - 53.6 °F 88% 29.92 in 6.2 mi SW 2.3 mph - N/A   Unknown
4:30 AM 57.2 °F - 53.6 °F 88% 29.92 in 6.2 mi SSW 2.3 mph - N/A   Scattered Clouds
5:00 AM 59.0 °F - 55.4 °F 88% 29.92 in 6.2 mi Calm Calm - N/A   Mostly Cloudy
5:30 AM 57.2 °F - 53.6 °F 88% 29.92 in 6.2 mi South 3.5 mph - N/A   Mostly Cloudy
6:30 AM 57.2 °F - 53.6 °F 88% 29.92 in 6.2 mi Calm Calm - N/A   Partly Cloudy
7:00 AM 55.4 °F - 53.6 °F 94% 29.92 in 6.2 mi West 2.3 mph - N/A   Unknown
7:30 AM 57.2 °F - 55.4 °F 94% 29.89 in 6.2 mi Calm Calm - N/A   Unknown
8:00 AM 57.2 °F - 55.4 °F 94% 29.89 in 6.2 mi Variable 2.3 mph - N/A   Unknown
8:30 AM 60.8 °F - 57.2 °F 88% 29.89 in 6.2 mi West 3.5 mph - N/A   Unknown
9:00 AM 62.6 °F - 57.2 °F 82% 29.89 in 6.2 mi WNW 3.5 mph - N/A   Unknown
9:30 AM 66.2 °F - 57.2 °F 73% 29.92 in 6.2 mi Calm Calm - N/A   Unknown
10:00 AM 66.2 °F - 57.2 °F 73% 29.92 in 6.2 mi Calm Calm - N/A   Unknown
10:30 AM 68.0 °F - 59.0 °F 73% 29.92 in 6.2 mi East 4.6 mph - N/A   Scattered Clouds
11:00 AM 69.8 °F - 57.2 °F 64% 29.89 in 6.2 mi Variable 3.5 mph - N/A   Unknown
11:30 AM 69.8 °F - 59.0 °F 68% 29.89 in 6.2 mi Variable 3.5 mph - N/A   Unknown
12:00 PM 73.4 °F - 59.0 °F 61% 29.86 in 6.2 mi Variable 3.5 mph - N/A   Partly Cloudy
12:30 PM 73.4 °F - 59.0 °F 61% 29.86 in 6.2 mi Variable 2.3 mph - N/A   Unknown
1:00 PM 75.2 °F - 59.0 °F 57% 29.86 in 6.2 mi East 4.6 mph - N/A   Unknown
1:30 PM 75.2 °F - 57.2 °F 53% 29.83 in 6.2 mi East 6.9 mph - N/A   Unknown
2:00 PM 77.0 °F - 57.2 °F 50% 29.80 in 6.2 mi Variable 4.6 mph - N/A   Unknown
2:30 PM 78.8 °F - 59.0 °F 51% 29.80 in 6.2 mi ENE 6.9 mph - N/A   Unknown
3:00 PM 80.6 °F 80.8 °F 57.2 °F 45% 29.77 in 6.2 mi Variable 4.6 mph - N/A   Unknown
3:30 PM 82.4 °F 82.0 °F 57.2 °F 42% 29.77 in 6.2 mi Variable 2.3 mph - N/A   Unknown
4:00 PM 82.4 °F 81.7 °F 55.4 °F 39% 29.74 in 6.2 mi NNW 4.6 mph - N/A   Unknown
4:30 PM 86.0 °F - 51.8 °F 31% 29.74 in 6.2 mi Variable 4.6 mph - N/A   Unknown
5:00 PM 84.2 °F - 50.0 °F 30% 29.71 in 6.2 mi ENE 9.2 mph - N/A   Partly Cloudy
5:30 PM 82.4 °F - 51.8 °F 35% 29.71 in 6.2 mi WSW 5.8 mph - N/A   Partly Cloudy
6:00 PM 84.2 °F - 51.8 °F 33% 29.71 in 6.2 mi ESE 6.9 mph - N/A   Partly Cloudy
6:30 PM 84.2 °F 82.8 °F 53.6 °F 35% 29.71 in 6.2 mi Variable 3.5 mph - N/A   Mostly Cloudy
7:00 PM 80.6 °F 80.5 °F 55.4 °F 42% 29.71 in 6.2 mi West 8.1 mph - N/A   Scattered Clouds
7:30 PM 77.0 °F - 55.4 °F 47% 29.74 in 6.2 mi Variable 3.5 mph - N/A   Scattered Clouds
8:00 PM 73.4 °F - 53.6 °F 50% 29.74 in 6.2 mi Variable 4.6 mph - N/A   Partly Cloudy
8:30 PM 73.4 °F - 53.6 °F 50% 29.74 in 6.2 mi SSE 8.1 mph - N/A   Unknown
9:00 PM 73.4 °F - 53.6 °F 50% 29.74 in 6.2 mi SSE 6.9 mph - N/A   Unknown
9:30 PM 69.8 °F - 51.8 °F 53% 29.74 in 6.2 mi Variable 2.3 mph - N/A   Unknown
10:00 PM 69.8 °F - 51.8 °F 53% 29.74 in 6.2 mi Variable 2.3 mph - N/A   Unknown
10:30 PM 69.8 °F - 53.6 °F 56% 29.74 in 6.2 mi ENE 4.6 mph - N/A   Unknown
11:00 PM 68.0 °F - 51.8 °F 56% 29.74 in 6.2 mi ENE 5.8 mph - N/A   Unknown
11:30 PM 66.2 °F - 51.8 °F 60% 29.77 in 6.2 mi North 5.8 mph - N/A   Partly Cloudy